Time,TemperatureF,DewpointF,PressureIn,WindDirection,WindDirectionDegrees,WindSpeedMPH,WindSpeedGustMPH,Humidity,HourlyPrecipIn,Conditions,Clouds,dailyrainin,SoftwareType,DateUTC
2013-08-29 00:14:00,81.0,-99.9,-100.00,South,185,1.0,3.0,-999,0.00,,,0.00,,2013-08-29 05:14:00,
2013-08-29 00:23:00,81.0,-99.9,-100.00,South,185,1.0,3.0,-999,0.00,,,0.00,,2013-08-29 05:23:00,
2013-08-29 00:42:00,81.0,-99.9,-100.00,SSW,209,1.0,3.0,-999,0.00,,,0.00,,2013-08-29 05:42:00,
2013-08-29 00:52:00,81.0,-99.9,-100.00,SSW,209,1.0,3.0,-999,0.00,,,0.00,,2013-08-29 05:52:00,
2013-08-29 01:13:00,80.0,-99.9,-100.00,South,188,0.0,1.0,-999,0.00,,,0.00,,2013-08-29 06:13:00,
2013-08-29 01:22:00,80.0,-99.9,-100.00,South,188,0.0,1.0,-999,0.00,,,0.00,,2013-08-29 06:22:00,
2013-08-29 01:43:00,80.0,-99.9,-100.00,SW,233,0.0,1.0,-999,0.00,,,0.00,,2013-08-29 06:43:00,
2013-08-29 01:52:00,80.0,-99.9,-100.00,SW,233,0.0,1.0,-999,0.00,,,0.00,,2013-08-29 06:52:00,
2013-08-29 02:12:00,79.0,-99.9,-100.00,SSW,209,1.0,3.0,-999,0.00,,,0.00,,2013-08-29 07:12:00,
2013-08-29 02:22:00,79.0,-99.9,-100.00,SSW,209,1.0,3.0,-999,0.00,,,0.00,,2013-08-29 07:22:00,
2013-08-29 02:42:00,78.0,-99.9,-100.00,WSW,240,1.0,3.0,-999,0.00,,,0.00,,2013-08-29 07:42:00,
2013-08-29 02:53:00,78.0,-99.9,-100.00,WSW,240,1.0,3.0,-999,0.00,,,0.00,,2013-08-29 07:53:00,
2013-08-29 03:12:00,78.0,-99.9,-100.00,SSW,201,0.0,1.0,-999,0.00,,,0.00,,2013-08-29 08:12:00,
2013-08-29 03:22:00,78.0,-99.9,-100.00,SSW,201,0.0,1.0,-999,0.00,,,0.00,,2013-08-29 08:22:00,
2013-08-29 03:42:00,77.0,-99.9,-100.00,SW,219,1.0,2.0,-999,0.00,,,0.00,,2013-08-29 08:42:00,
2013-08-29 03:52:00,77.0,-99.9,-100.00,SW,219,1.0,2.0,-999,0.00,,,0.00,,2013-08-29 08:52:00,
2013-08-29 04:12:00,77.0,-99.9,-100.00,WSW,246,0.0,1.0,-999,0.00,,,0.00,,2013-08-29 09:12:00,
2013-08-29 04:22:00,77.0,-99.9,-100.00,WSW,246,0.0,1.0,-999,0.00,,,0.00,,2013-08-29 09:22:00,
2013-08-29 04:43:00,74.0,-99.9,-100.00,West,259,1.0,3.0,-999,0.00,,,0.00,,2013-08-29 09:43:00,
2013-08-29 04:55:00,74.0,-99.9,-100.00,West,259,1.0,3.0,-999,0.00,,,0.00,,2013-08-29 09:55:00,
2013-08-29 05:15:00,73.0,-99.9,-100.00,WSW,237,2.0,2.0,-999,0.00,,,0.00,,2013-08-29 10:15:00,
2013-08-29 05:24:00,73.0,-99.9,-100.00,WSW,237,2.0,2.0,-999,0.00,,,0.00,,2013-08-29 10:24:00,
2013-08-29 05:43:00,74.0,-99.9,-100.00,SSW,206,1.0,2.0,-999,0.00,,,0.00,,2013-08-29 10:43:00,
2013-08-29 05:53:00,74.0,-99.9,-100.00,SSW,206,1.0,2.0,-999,0.00,,,0.00,,2013-08-29 10:53:00,
2013-08-29 06:12:00,74.0,-99.9,-100.00,WNW,282,0.0,2.0,-999,0.00,,,0.00,,2013-08-29 11:12:00,
2013-08-29 06:22:00,74.0,-99.9,-100.00,WNW,282,0.0,2.0,-999,0.00,,,0.00,,2013-08-29 11:22:00,
2013-08-29 06:42:00,73.0,-99.9,-100.00,West,259,1.0,2.0,-999,0.00,,,0.00,,2013-08-29 11:42:00,
2013-08-29 06:52:00,73.0,-99.9,-100.00,West,259,1.0,2.0,-999,0.00,,,0.00,,2013-08-29 11:52:00,
2013-08-29 07:12:00,73.0,-99.9,-100.00,WSW,247,0.0,0.0,-999,0.00,,,0.00,,2013-08-29 12:12:00,
2013-08-29 07:22:00,73.0,-99.9,-100.00,WSW,247,0.0,0.0,-999,0.00,,,0.00,,2013-08-29 12:22:00,
2013-08-29 07:42:00,73.0,-99.9,-100.00,SW,219,0.0,1.0,-999,0.00,,,0.00,,2013-08-29 12:42:00,
2013-08-29 07:52:00,73.0,-99.9,-100.00,SW,219,0.0,1.0,-999,0.00,,,0.00,,2013-08-29 12:52:00,
2013-08-29 08:12:00,74.0,-99.9,-100.00,WSW,240,1.0,2.0,-999,0.00,,,0.00,,2013-08-29 13:12:00,
2013-08-29 08:22:00,74.0,-99.9,-100.00,WSW,240,1.0,2.0,-999,0.00,,,0.00,,2013-08-29 13:22:00,
2013-08-29 08:30:00,80.0,-99.9,-100.00,WSW,251,2.0,4.0,-999,0.00,,,0.00,,2013-08-29 13:30:00,
2013-08-29 08:42:00,77.0,-99.9,-100.00,SW,234,1.0,2.0,-999,0.00,,,0.00,,2013-08-29 13:42:00,
2013-08-29 08:52:00,77.0,-99.9,-100.00,SW,234,1.0,2.0,-999,0.00,,,0.00,,2013-08-29 13:52:00,
2013-08-29 09:11:00,80.0,-99.9,-100.00,WSW,251,2.0,4.0,-999,0.00,,,0.00,,2013-08-29 14:11:00,
2013-08-29 09:22:00,80.0,-99.9,-100.00,WSW,251,2.0,4.0,-999,0.00,,,0.00,,2013-08-29 14:22:00,
2013-08-29 10:43:00,86.0,-99.9,-100.00,East,84,1.0,1.0,-999,0.00,,,0.00,,2013-08-29 15:43:00,
2013-08-29 10:53:00,86.0,-99.9,-100.00,East,84,1.0,1.0,-999,0.00,,,0.00,,2013-08-29 15:53:00,
2013-08-29 11:13:00,88.0,-99.9,-100.00,East,85,1.0,2.0,-999,0.00,,,0.00,,2013-08-29 16:13:00,
2013-08-29 11:24:00,88.0,-99.9,-100.00,East,85,1.0,2.0,-999,0.00,,,0.00,,2013-08-29 16:24:00,
2013-08-29 11:43:00,92.0,-99.9,-100.00,North,349,2.0,4.0,-999,0.00,,,0.00,,2013-08-29 16:43:00,
2013-08-29 11:54:00,92.0,-99.9,-100.00,North,349,2.0,4.0,-999,0.00,,,0.00,,2013-08-29 16:54:00,
2013-08-29 12:13:00,93.0,-99.9,-100.00,NNE,26,1.0,2.0,-999,0.00,,,0.00,,2013-08-29 17:13:00,
2013-08-29 12:23:00,93.0,-99.9,-100.00,NNE,26,1.0,2.0,-999,0.00,,,0.00,,2013-08-29 17:23:00,
2013-08-29 12:44:00,94.0,-99.9,-100.00,North,8,2.0,3.0,-999,0.00,,,0.00,,2013-08-29 17:44:00,
2013-08-29 12:53:00,94.0,-99.9,-100.00,North,8,2.0,3.0,-999,0.00,,,0.00,,2013-08-29 17:53:00,
2013-08-29 13:12:00,96.0,-99.9,-100.00,North,354,2.0,4.0,-999,0.00,,,0.00,,2013-08-29 18:12:00,
2013-08-29 13:22:00,96.0,-99.9,-100.00,North,354,2.0,4.0,-999,0.00,,,0.00,,2013-08-29 18:22:00,
2013-08-29 13:43:00,97.0,-99.9,-100.00,North,355,3.0,5.0,-999,0.00,,,0.00,,2013-08-29 18:43:00,
2013-08-29 13:52:00,97.0,-99.9,-100.00,North,355,3.0,5.0,-999,0.00,,,0.00,,2013-08-29 18:52:00,
2013-08-29 14:11:00,94.0,-99.9,-100.00,NE,40,2.0,4.0,-999,0.00,,,0.00,,2013-08-29 19:11:00,
2013-08-29 14:22:00,94.0,-99.9,-100.00,NE,40,2.0,4.0,-999,0.00,,,0.00,,2013-08-29 19:22:00,
2013-08-29 14:42:00,98.0,-99.9,-100.00,North,350,3.0,5.0,-999,0.00,,,0.00,,2013-08-29 19:42:00,
2013-08-29 14:53:00,98.0,-99.9,-100.00,North,350,3.0,5.0,-999,0.00,,,0.00,,2013-08-29 19:53:00,
2013-08-29 15:13:00,97.0,-99.9,-100.00,NNE,18,2.0,4.0,-999,0.00,,,0.00,,2013-08-29 20:13:00,
2013-08-29 15:22:00,97.0,-99.9,-100.00,NNE,18,2.0,4.0,-999,0.00,,,0.00,,2013-08-29 20:22:00,
2013-08-29 15:42:00,95.0,-99.9,-100.00,NE,51,2.0,5.0,-999,0.00,,,0.00,,2013-08-29 20:42:00,
2013-08-29 15:52:00,95.0,-99.9,-100.00,NE,51,2.0,5.0,-999,0.00,,,0.00,,2013-08-29 20:52:00,
2013-08-29 16:12:00,93.0,-99.9,-100.00,ESE,102,4.0,6.0,-999,0.00,,,0.00,,2013-08-29 21:12:00,
2013-08-29 16:22:00,93.0,-99.9,-100.00,ESE,102,4.0,6.0,-999,0.00,,,0.00,,2013-08-29 21:22:00,
2013-08-29 16:30:00,92.0,-99.9,-100.00,SE,128,5.0,6.0,-999,0.00,,,0.00,,2013-08-29 21:30:00,
2013-08-29 16:44:00,92.0,-99.9,-100.00,SE,126,5.0,7.0,-999,0.00,,,0.00,,2013-08-29 21:44:00,
2013-08-29 16:54:00,92.0,-99.9,-100.00,SE,126,5.0,7.0,-999,0.00,,,0.00,,2013-08-29 21:54:00,
2013-08-29 17:14:00,92.0,-99.9,-100.00,SE,128,5.0,6.0,-999,0.00,,,0.00,,2013-08-29 22:14:00,
2013-08-29 17:24:00,92.0,-99.9,-100.00,SE,128,5.0,6.0,-999,0.00,,,0.00,,2013-08-29 22:24:00,
2013-08-29 17:53:00,92.0,-99.9,-100.00,SE,131,3.0,4.0,-999,0.00,,,0.00,,2013-08-29 22:53:00,
2013-08-29 18:13:00,91.0,-99.9,-100.00,SE,133,4.0,4.0,-999,0.00,,,0.00,,2013-08-29 23:13:00,
2013-08-29 18:22:00,91.0,-99.9,-100.00,SE,133,4.0,4.0,-999,0.00,,,0.00,,2013-08-29 23:22:00,
2013-08-29 18:43:00,91.0,-99.9,-100.00,SE,139,3.0,4.0,-999,0.00,,,0.00,,2013-08-29 23:43:00,
2013-08-29 18:53:00,91.0,-99.9,-100.00,SE,139,3.0,4.0,-999,0.00,,,0.00,,2013-08-29 23:53:00,
2013-08-29 19:12:00,89.0,-99.9,-100.00,ESE,113,1.0,2.0,-999,0.00,,,-99.99,,2013-08-30 00:12:00,
2013-08-29 19:22:00,89.0,-99.9,-100.00,ESE,113,1.0,2.0,-999,0.00,,,-99.99,,2013-08-30 00:22:00,
2013-08-29 19:42:00,90.0,-99.9,-100.00,East,97,3.0,4.0,-999,0.00,,,0.00,,2013-08-30 00:42:00,
2013-08-29 19:52:00,90.0,-99.9,-100.00,East,97,3.0,4.0,-999,0.00,,,0.00,,2013-08-30 00:52:00,
2013-08-29 20:12:00,87.0,-99.9,-100.00,SE,145,1.0,2.0,-999,0.00,,,0.00,,2013-08-30 01:12:00,
2013-08-29 20:22:00,87.0,-99.9,-100.00,SE,145,1.0,2.0,-999,0.00,,,0.00,,2013-08-30 01:22:00,
2013-08-29 20:42:00,86.0,-99.9,-100.00,SE,131,2.0,3.0,-999,0.00,,,0.00,,2013-08-30 01:42:00,
2013-08-29 20:52:00,86.0,-99.9,-100.00,SE,131,2.0,3.0,-999,0.00,,,0.00,,2013-08-30 01:52:00,
2013-08-29 21:11:00,85.0,-99.9,-100.00,East,98,2.0,3.0,-999,0.00,,,0.00,,2013-08-30 02:11:00,
2013-08-29 21:22:00,85.0,-99.9,-100.00,East,98,2.0,3.0,-999,0.00,,,0.00,,2013-08-30 02:22:00,
2013-08-29 21:42:00,84.0,-99.9,-100.00,ESE,108,3.0,5.0,-999,0.00,,,0.00,,2013-08-30 02:42:00,
2013-08-29 21:52:00,84.0,-99.9,-100.00,ESE,108,3.0,5.0,-999,0.00,,,0.00,,2013-08-30 02:52:00,
2013-08-29 22:12:00,84.0,-99.9,-100.00,SSE,150,5.0,6.0,-999,0.00,,,0.00,,2013-08-30 03:12:00,
2013-08-29 22:22:00,84.0,-99.9,-100.00,SSE,150,5.0,6.0,-999,0.00,,,0.00,,2013-08-30 03:22:00,
2013-08-29 22:43:00,83.0,-99.9,-100.00,SE,140,7.0,8.0,-999,0.00,,,0.00,,2013-08-30 03:43:00,
2013-08-29 22:55:00,83.0,-99.9,-100.00,SE,140,7.0,8.0,-999,0.00,,,0.00,,2013-08-30 03:55:00,
2013-08-29 23:14:00,83.0,-99.9,-100.00,ESE,113,3.0,5.0,-999,0.00,,,0.00,,2013-08-30 04:14:00,
2013-08-29 23:25:00,83.0,-99.9,-100.00,ESE,113,3.0,5.0,-999,0.00,,,0.00,,2013-08-30 04:25:00,
2013-08-29 23:44:00,82.0,-99.9,-100.00,East,88,3.0,4.0,-999,0.00,,,0.00,,2013-08-30 04:44:00,
2013-08-29 23:54:00,82.0,-99.9,-100.00,East,88,3.0,4.0,-999,0.00,,,0.00,,2013-08-30 04:54:00,